sat.trackr.live / text

‹ back to catalog

KUIPER-00134

NORAD 65960 · 2025-228P

PAYLOAD ACTIVE UNKNOWN

§ Identity

Operator
Country
US
Launch date
2025-10-14
Launch site
AFETR
Launch vehicle
Mass (kg)
RCS (m²)

External: N2YO · Heavens-Above · Gunter

§ Orbital elements

Epoch: 2026-09-20T22:05:22.721568Z

Period
93.63 min
Inclination
51.8694°
Eccentricity
0.0004091
Mean motion
15.37962201 rev/d
Perigee alt
449.3 km
Apogee alt
454.9 km
Semi-major
6,830.3 km
B*
6.6091e-4
RAAN
92.6074°
Arg perigee
276.0646°
Mean anomaly
83.9875°
Rev number
5,387

§ Raw data

KUIPER-001341 65960U 25228P   26263.92040187  .00024757  00000+0  66091-3 0  99942 65960  51.8694  92.6074 0004091 276.0646  83.9875 15.37962201 53873

JSON: /api/v1/satellites/65960 · /tle

For live sub-satellite position, see the globe view (requires WebGL).

§ Visibility from observer

Set your observer location to see the next 7 days of passes ≥ 10°. The values pass through the URL so the page stays shareable.

No JS? Fill the form by hand. The geolocation button needs JavaScript.